Starlink 4089

operational
NORAD ID: 52831 Int'l Des: 2022-062 Owner: SPXS Country: US Constellation: starlink
LEOCIRCULAR

Starlink 4089について

説明を読み込み中...

リアルタイム位置

3D地球を読み込み中...

次回通過

高度履歴

Altitude vs Time

uPlot chart will show altitude changes over time

軌道要素

1 52831U 22062B 25304.14401808 .00002912 00000-0 20086-3 0 9994
2 52831 53.2171 255.6739 0001457 93.7732 266.3426 15.08865536186220
Epoch: Oct 31, 2025 • Age: 18 hours

現在のステータス

高度 542.2 km
速度 7.60 km/s
衛星直下点 38.49°N, 69.33°W
打ち上げ日 Jun 17, 2022
運用期間 3.3 years
タイプ internet

技術仕様

分類 Payload
質量 297.00 kg
乾燥質量 275.00 kg
総質量 297.00 kg
長さ 0.20 m
直径 2.80 m
スパン 9.00 m
形状 Box + pan
製造者 SPXS
バスタイプ Starlink
フェーズステータス In Orbit
所有者/国 SPXS/US

大規模コンステレーション

Loading constellations...